Starlink 34862

operational
NORAD ID: 65180 Int'l Des: 2025-175 Owner: SPXS Country: US Constellation: starlink
LEOCIRCULARRETROGRADESSO

Starlink 34862について

説明を読み込み中...

リアルタイム位置

3D地球を読み込み中...

次回通過

高度履歴

Altitude vs Time

uPlot chart will show altitude changes over time

軌道要素

1 65180U 25175G 25340.94838531 .00010531 00000-0 73272-3 0 9999
2 65180 97.6004 211.2153 0001948 88.7028 271.4422 15.05661118 18687
Epoch: Dec 6, 2025 • Age: 20 hours

現在のステータス

高度 561.6 km
速度 7.59 km/s
衛星直下点 81.60°N, 104.49°E
打ち上げ日 Aug 14, 2025
運用期間 0.3 years
タイプ internet

技術仕様

分類 Payload
質量 575.00 kg
乾燥質量 530.00 kg
総質量 575.00 kg
長さ 0.30 m
直径 4.10 m
スパン 29.00 m
形状 Box + pan
製造者 SPXS
バスタイプ Starlink V2MO
フェーズステータス In Orbit
所有者/国 SPXS/US

大規模コンステレーション

Loading constellations...